FW1757 Weather Reports


time (UTC)temp
C
wind
direction
speed
KPH
gust
KPH
rain 1hr
cm
rain 24hr
cm
rain mn
cm
humidity
%
barometer
mb
20260510100030 11 167 0.0 0.0 0.00 0.00 0.00 67 1014.0
20260510095529 12 167 0.0 0.0 0.00 0.00 0.00 66 1014.0
20260510095027 12 167 0.0 0.0 0.00 0.00 0.00 66 1014.0
20260510094526 12 167 0.0 0.0 0.00 0.00 0.00 65 1014.0
20260510094026 12 167 0.0 0.0 0.00 0.00 0.00 65 1013.9
20260510093524 12 167 0.0 0.0 0.00 0.00 0.00 64 1013.9
20260510093026 13 167 0.0 0.0 0.00 0.00 0.00 64 1014.0
20260510092526 13 167 0.0 0.0 0.00 0.00 0.00 63 1013.9
20260510092027 13 167 0.0 0.0 0.00 0.00 0.00 63 1014.0
20260510091524 13 167 0.0 0.0 0.00 0.00 0.00 62 1014.1
20260510091027 13 167 0.0 0.0 0.00 0.00 0.00 62 1014.1
20260510090523 12 167 0.0 0.0 0.00 0.00 0.00 62 1014.1
20260510090022 12 94 0.0 0.0 0.00 0.00 0.00 62 1014.1
20260510085521 12 94 0.0 0.0 0.00 0.00 0.00 63 1014.1
20260510085022 12 94 0.0 0.0 0.00 0.00 0.00 63 1014.1
20260510084520 12 94 0.0 0.0 0.00 0.00 0.00 63 1014.2
20260510084021 12 94 0.0 0.0 0.00 0.00 0.00 64 1014.2
20260510083522 12 94 0.0 0.0 0.00 0.00 0.00 64 1014.2
20260510083019 12 94 0.0 0.0 0.00 0.00 0.00 65 1014.3
20260510082519 12 91 0.0 0.0 0.00 0.00 0.00 63 1014.3
20260510082019 12 91 0.0 0.0 0.00 0.00 0.00 64 1014.3
20260510081519 12 91 0.0 0.0 0.00 0.00 0.00 63 1014.4
20260510081020 12 91 0.0 0.0 0.00 0.00 0.00 63 1014.4
20260510080517 12 91 0.0 0.0 0.00 0.00 0.00 64 1014.4
20260510080018 12 91 0.0 0.0 0.00 0.00 0.00 65 1014.4
20260510075517 12 91 0.0 0.0 0.00 0.00 0.00 65 1014.4
20260510075019 12 91 0.0 0.0 0.00 0.00 0.00 65 1014.4
20260510074520 12 91 0.0 0.0 0.00 0.00 0.00 65 1014.5
20260510074019 12 91 0.0 0.0 0.00 0.00 0.00 65 1014.4
20260510073516 12 91 0.0 0.0 0.00 0.00 0.00 64 1014.4
20260510073016 12 91 0.0 0.0 0.00 0.00 0.00 63 1014.5
20260510072516 12 91 0.0 0.0 0.00 0.00 0.00 63 1014.4
20260510072016 12 91 0.0 0.0 0.00 0.00 0.00 63 1014.5
20260510071515 12 91 0.0 0.0 0.00 0.00 0.00 62 1014.4
20260510071014 12 91 0.0 0.0 0.00 0.00 0.00 62 1014.5
20260510070514 12 91 0.0 0.0 0.00 0.00 0.00 61 1014.5
20260510070013 12 91 0.0 0.0 0.00 0.00 0.00 62 1014.4
20260510065512 12 91 0.0 0.0 0.00 0.00 0.00 61 1014.5
20260510065012 12 91 0.0 0.0 0.00 0.00 0.00 62 1014.3
20260510064511 12 91 0.0 0.0 0.00 0.00 0.00 61 1014.3
20260510064011 13 91 0.0 0.0 0.00 0.00 0.00 61 1014.4
20260510063511 13 91 0.0 0.0 0.00 0.00 0.00 61 1014.4
20260510063011 13 91 0.0 0.0 0.00 0.00 0.00 60 1014.3
20260510062511 13 91 0.0 0.0 0.00 0.00 0.00 60 1014.2
20260510062010 13 91 0.0 0.0 0.00 0.00 0.00 59 1014.2
20260510061511 13 91 0.0 0.0 0.00 0.00 0.00 58 1014.2
20260510061010 13 91 0.0 0.0 0.00 0.00 0.00 58 1014.0
20260510060510 14 91 0.0 0.0 0.00 0.00 0.00 57 1014.2
20260510060018 14 91 0.0 0.0 0.00 0.00 0.00 56 1014.0
20260510055509 14 90 0.0 0.0 0.00 0.00 0.00 55 1014.1
20260510055009 14 90 0.0 0.0 0.00 0.00 0.00 55 1014.0
20260510054511 15 90 0.0 0.0 0.00 0.00 0.00 55 1013.9
20260510054010 15 90 0.0 0.0 0.00 0.00 0.00 54 1013.9
20260510053511 15 90 0.0 0.0 0.00 0.00 0.00 53 1013.9
20260510053013 15 90 0.0 0.0 0.00 0.00 0.00 52 1013.8
20260510052508 15 90 0.0 0.0 0.00 0.00 0.00 52 1013.9
20260510052008 16 90 0.0 0.0 0.00 0.00 0.00 50 1013.8
20260510051508 16 90 0.0 0.0 0.00 0.00 0.00 49 1013.7
20260510051009 16 90 0.0 0.0 0.00 0.00 0.00 49 1013.9
20260510050509 16 90 0.0 0.0 0.00 0.00 0.00 48 1013.9
20260510050011 17 90 0.0 0.0 0.00 0.00 0.00 47 1013.9
20260510045509 17 90 0.0 0.0 0.00 0.00 0.00 46 1013.8
20260510045008 17 90 0.0 0.0 0.00 0.00 0.00 45 1013.8
20260510044508 18 90 0.0 0.0 0.00 0.00 0.00 44 1013.7
20260510044007 18 90 0.0 0.0 0.00 0.00 0.00 42 1013.7
20260510043507 18 90 0.0 0.0 0.00 0.00 0.00 40 1013.7
20260510043007 19 90 0.0 0.0 0.00 0.00 0.00 40 1013.7
20260510042508 20 90 0.0 0.0 0.00 0.00 0.00 38 1013.7
20260510042006 20 90 0.0 0.0 0.00 0.00 0.00 38 1013.7
20260510041506 20 90 0.0 0.0 0.00 0.00 0.00 35 1013.6
20260510041006 20 91 0.0 0.0 0.00 0.00 0.00 34 1013.6
20260510040506 20 112 0.0 0.0 0.00 0.00 0.00 34 1013.5
20260510040006 21 128 0.0 0.0 0.00 0.00 0.00 33 1013.5
20260510035505 21 128 0.0 0.0 0.00 0.00 0.00 32 1013.4
20260510035006 21 128 0.0 0.0 0.00 0.00 0.00 31 1013.3
20260510034505 21 128 0.0 0.0 0.00 0.00 0.00 33 1013.3
20260510034005 21 128 0.0 0.0 0.00 0.00 0.00 30 1013.2
20260510033504 21 128 0.0 0.0 0.00 0.00 0.00 30 1013.3
20260510033005 21 128 0.0 0.0 0.00 0.00 0.00 29 1013.3
20260510032504 21 117 0.0 0.0 0.00 0.00 0.00 29 1013.2
20260510032005 21 140 0.0 0.0 0.00 0.00 0.00 29 1013.3
20260510031511 21 140 0.0 0.0 0.00 0.00 0.00 30 1013.3
20260510031004 21 140 0.0 0.0 0.00 0.00 0.00 29 1013.3
20260510030507 21 140 0.0 0.0 0.00 0.00 0.00 28 1013.2
20260510030009 21 145 0.0 0.0 0.00 0.00 0.00 29 1013.3
20260510025505 21 111 0.0 0.0 0.00 0.00 0.00 31 1013.2
20260510025004 21 88 0.0 0.0 0.00 0.00 0.00 33 1013.1
20260510024503 21 78 0.0 0.0 0.00 0.00 0.00 33 1013.1
20260510024004 22 47 0.0 0.0 0.00 0.00 0.00 35 1013.1
20260510023502 22 47 0.0 0.0 0.00 0.00 0.00 34 1013.0
20260510023002 22 47 0.0 0.0 0.00 0.00 0.00 37 1013.1
20260510022503 22 47 0.0 0.0 0.00 0.00 0.00 35 1013.1
20260510022002 22 47 0.0 0.0 0.00 0.00 0.00 36 1013.1
20260510021501 22 47 0.0 0.0 0.00 0.00 0.00 41 1013.1
20260510021001 23 47 0.0 0.0 0.00 0.00 0.00 37 1013.2
20260510020602 23 46 0.0 0.0 0.00 0.00 0.00 37 1013.3
20260510020100 23 47 0.0 0.0 0.00 0.00 0.00 35 1013.2
20260510015559 24 47 0.0 0.0 0.00 0.00 0.00 32 1013.3
20260510015102 24 47 0.0 0.0 0.00 0.00 0.00 31 1013.3
20260510014618 25 46 0.0 0.0 0.00 0.00 0.00 32 1013.5
20260510014058 25 46 0.0 0.0 0.00 0.00 0.00 33 1013.4
20260510013600 25 46 0.0 0.0 0.00 0.00 0.00 31 1013.4
20260510013057 25 46 0.0 0.0 0.00 0.00 0.00 30 1013.5
20260510012556 26 46 0.0 0.0 0.00 0.00 0.00 33 1013.5
20260510012056 26 46 0.0 0.0 0.00 0.00 0.00 31 1013.6
20260510011556 27 46 0.0 0.0 0.00 0.00 0.00 30 1013.6
20260510011055 27 46 0.0 0.0 0.00 0.00 0.00 29 1013.7
20260510010555 27 46 0.0 0.0 0.00 0.00 0.00 31 1013.7
20260510010055 27 46 0.0 0.0 0.00 0.00 0.00 30 1013.7
20260510005554 27 46 0.0 0.0 0.00 0.00 0.00 25 1013.9
20260510005056 27 46 0.0 0.0 0.00 0.00 0.00 27 1014.0
20260510004553 27 39 0.0 0.0 0.00 0.00 0.00 25 1013.8
20260510004057 27 39 0.0 0.0 0.00 0.00 0.00 28 1013.8
20260510003554 27 39 0.0 0.0 0.00 0.00 0.00 29 1013.9
20260510003057 27 38 0.0 0.0 0.00 0.00 0.00 29 1014.0
20260510002554 27 38 0.0 0.0 0.00 0.00 0.00 29 1014.0
20260510002053 27 38 0.0 0.0 0.00 0.00 0.00 29 1013.9
20260510001554 27 40 0.0 0.0 0.00 0.00 0.00 28 1013.8
20260510001052 27 37 0.0 0.0 0.00 0.00 0.00 28 1013.9
20260510000552 28 36 0.0 0.0 0.00 0.00 0.00 26 1014.1
20260510000052 28 38 0.0 0.0 0.00 0.00 0.00 26 1014.2
20260509235550 28 37 0.0 0.0 0.00 0.00 0.00 25 1014.4
20260509235049 28 38 0.0 0.0 0.00 0.00 0.00 23 1014.4
20260509234548 28 20 0.0 0.0 0.00 0.00 0.00 25 1014.5
20260509234047 28 20 0.0 0.0 0.00 0.00 0.00 26 1014.8
20260509233551 28 360 0.0 0.0 0.00 0.00 0.00 24 1014.7
20260509233051 28 5 0.0 0.0 0.00 0.00 0.00 24 1014.7
20260509232546 28 360 0.0 0.0 0.00 0.00 0.00 25 1014.9
20260509232045 28 360 0.0 0.0 0.00 0.00 0.00 25 1014.9
20260509231546 28 15 0.0 0.0 0.00 0.00 0.00 22 1015.0
20260509231046 28 11 0.0 0.0 0.00 0.00 0.00 26 1015.1
20260509230548 28 17 0.0 0.0 0.00 0.00 0.00 23 1015.2
20260509230044 28 42 0.0 0.0 0.00 0.00 0.00 22 1015.3
20260509225542 28 146 0.0 0.0 0.00 0.00 0.00 25 1015.5
20260509225047 28 348 0.0 0.0 0.00 0.00 0.00 26 1015.4
20260509224553 28 43 0.0 0.0 0.00 0.00 0.00 24 1015.6
20260509224042 28 342 0.0 0.0 0.00 0.00 0.00 27 1015.6
20260509223540 28 360 0.0 0.0 0.00 0.00 0.00 24 1015.6
20260509223039 28 25 0.0 0.0 0.00 0.00 0.00 25 1015.6
20260509222538 28 335 0.0 0.0 0.00 0.00 0.00 26 1015.9
20260509222038 28 322 0.0 0.0 0.00 0.00 0.00 27 1016.0
20260509221543 28 5 0.0 0.0 0.00 0.00 0.00 30 1016.0
20260509221036 28 345 0.0 0.0 0.00 0.00 0.00 29 1016.0
20260509220534 27 40 0.0 0.0 0.00 0.00 0.00 31 1016.1
20260509220034 27 49 0.0 0.0 0.00 0.00 0.00 27 1016.3
20260509215533 27 32 0.0 0.0 0.00 0.00 0.00 25 1016.2
20260509215034 27 24 0.0 0.0 0.00 0.00 0.00 27 1016.4
20260509214532 27 20 0.0 0.0 0.00 0.00 0.00 26 1016.5
20260509214033 27 355 0.0 0.0 0.00 0.00 0.00 30 1016.5
20260509213531 27 5 0.0 0.0 0.00 0.00 0.00 30 1016.5
20260509213029 27 26 0.0 0.0 0.00 0.00 0.00 31 1016.6
20260509212527 26 34 0.0 0.0 0.00 0.00 0.00 32 1016.7
20260509212027 26 5 0.0 0.0 0.00 0.00 0.00 34 1016.9
20260509211526 26 25 0.0 0.0 0.00 0.00 0.00 35 1017.0
20260509211026 26 65 0.0 0.0 0.00 0.00 0.00 34 1017.0
20260509210526 26 11 0.0 0.0 0.00 0.00 0.00 37 1017.1
20260509210030 25 48 0.0 0.0 0.00 0.00 0.00 38 1017.2
20260509205522 25 53 0.0 0.0 0.00 0.00 0.00 37 1017.3
20260509205020 25 38 0.0 0.0 0.00 0.00 0.00 39 1017.3
20260509204518 25 21 0.0 0.0 0.00 0.00 0.00 39 1017.2
20260509204018 25 13 0.0 0.0 0.00 0.00 0.00 38 1017.2
20260509203517 24 5 0.0 0.0 0.00 0.00 0.00 40 1017.4
20260509203017 24 34 0.0 0.0 0.00 0.00 0.00 40 1017.4
20260509202514 24 77 0.0 0.0 0.00 0.00 0.00 44 1017.5
20260509202016 23 33 0.0 0.0 0.00 0.00 0.00 42 1017.6
20260509201512 23 71 0.0 0.0 0.00 0.00 0.00 42 1017.7
20260509201013 23 9 0.0 0.0 0.00 0.00 0.00 41 1017.7
20260509200510 23 322 0.0 0.0 0.00 0.00 0.00 44 1017.9
20260509200009 23 9 0.0 0.0 0.00 0.00 0.00 45 1018.2
20260509195511 23 69 0.0 0.0 0.00 0.00 0.00 45 1018.2
20260509195010 22 11 0.0 0.0 0.00 0.00 0.00 46 1018.3
20260509194505 22 25 0.0 0.0 0.00 0.00 0.00 45 1018.4
20260509194004 22 19 0.0 0.0 0.00 0.00 0.00 49 1018.5
20260509193504 22 57 0.0 0.0 0.00 0.00 0.00 50 1018.5
20260509193003 21 15 0.0 0.0 0.00 0.00 0.00 50 1018.6
20260509192603 21 360 0.0 0.0 0.00 0.00 0.00 51 1018.7
20260509192059 21 53 0.0 0.0 0.00 0.00 0.00 50 1018.7
20260509191603 21 355 0.0 0.0 0.00 0.00 0.00 52 1018.8
20260509191057 21 355 0.0 0.0 0.00 0.00 0.00 53 1018.9
20260509190554 20 78 0.0 0.0 0.00 0.00 0.00 55 1018.9
20260509190107 20 39 0.0 0.0 0.00 0.00 0.00 55 1019.0
20260509185552 20 38 0.0 0.0 0.00 0.00 0.00 56 1019.1
20260509185051 20 37 0.0 0.0 0.00 0.00 0.00 58 1019.1
20260509184551 19 13 0.0 0.0 0.00 0.00 0.00 54 1019.2
20260509184049 19 329 0.0 0.0 0.00 0.00 0.00 55 1019.3
20260509183548 19 351 0.0 0.0 0.00 0.00 0.00 56 1019.4
20260509183047 18 351 0.0 0.0 0.00 0.00 0.00 58 1019.4
20260509182546 18 351 0.0 0.0 0.00 0.00 0.00 59 1019.5
20260509182045 18 331 0.0 0.0 0.00 0.00 0.00 58 1019.5
20260509181546 18 331 0.0 0.0 0.00 0.00 0.00 61 1019.5
20260509181043 18 330 0.0 0.0 0.00 0.00 0.00 61 1019.6
20260509180542 18 321 0.0 0.0 0.00 0.00 0.00 57 1019.6
20260509180043 17 267 0.0 0.0 0.00 0.00 0.00 60 1019.6
20260509175540 17 228 0.0 0.0 0.00 0.00 0.00 60 1019.5
20260509175039 17 215 0.0 0.0 0.00 0.00 0.00 59 1019.5
20260509174537 17 271 0.0 0.0 0.00 0.00 0.00 63 1019.6
20260509174036 16 271 0.0 0.0 0.00 0.00 0.00 61 1019.5
20260509173535 16 271 0.0 0.0 0.00 0.00 0.00 63 1019.5
20260509173033 16 269 0.0 0.0 0.00 0.00 0.00 64 1019.6
20260509172532 15 265 0.0 0.0 0.00 0.00 0.00 66 1019.6
20260509172031 15 265 0.0 0.0 0.00 0.00 0.00 66 1019.6
20260509171537 15 265 0.0 0.0 0.00 0.00 0.00 66 1019.7
20260509171028 15 265 0.0 0.0 0.00 0.00 0.00 67 1019.8
20260509170531 14 265 0.0 0.0 0.00 0.00 0.00 67 1019.9
20260509170030 14 259 0.0 0.0 0.00 0.00 0.00 68 1019.9
20260509165525 14 259 0.0 0.0 0.00 0.00 0.00 68 1020.0
20260509165026 13 259 0.0 0.0 0.00 0.00 0.00 68 1019.8
20260509164524 13 259 0.0 0.0 0.00 0.00 0.00 68 1019.9
20260509164026 13 259 0.0 0.0 0.00 0.00 0.00 68 1019.9
20260509163529 13 259 0.0 0.0 0.00 0.00 0.00 68 1020.0
20260509163026 13 257 0.0 0.0 0.00 0.00 0.00 67 1020.1
20260509162524 12 257 0.0 0.0 0.00 0.00 0.00 65 1020.1
20260509162023 12 257 0.0 0.0 0.00 0.00 0.00 63 1020.1
20260509161524 12 257 0.0 0.0 0.00 0.00 0.00 63 1020.3
20260509161024 12 257 0.0 0.0 0.00 0.00 0.00 64 1020.3
20260509160522 12 257 0.0 0.0 0.00 0.00 0.00 63 1020.2
20260509160024 12 257 0.0 0.0 0.00 0.00 0.00 63 1020.4
20260509155522 12 255 0.0 0.0 0.00 0.00 0.00 60 1020.4
20260509155022 12 274 0.0 0.0 0.00 0.00 0.00 58 1020.4
20260509154522 11 263 0.0 0.0 0.00 0.00 0.00 57 1020.6
20260509154024 11 252 0.0 0.0 0.00 0.00 0.00 55 1020.4
20260509153522 11 230 0.0 0.0 0.00 0.00 0.00 52 1020.4
20260509153020 11 275 0.0 0.0 0.00 0.00 0.00 49 1020.3
20260509152520 11 275 0.0 0.0 0.00 0.00 0.00 48 1020.2
20260509152020 11 275 0.0 0.0 0.00 0.00 0.00 45 1020.3
20260509151520 11 275 0.0 0.0 0.00 0.00 0.00 42 1020.2
20260509151019 11 275 0.0 0.0 0.00 0.00 0.00 42 1020.2
20260509150519 11 275 0.0 0.0 0.00 0.00 0.00 40 1020.2
20260509150031 10 275 0.0 0.0 0.00 0.00 0.00 39 1020.2
20260509145520 10 275 0.0 0.0 0.00 0.00 0.00 35 1020.2
20260509145019 10 275 0.0 0.0 0.00 0.00 0.00 31 1020.3
20260509144529 10 275 0.0 0.0 0.00 0.00 0.00 29 1020.4
20260509144021 10 275 0.0 0.0 0.00 0.00 0.00 27 1020.3
20260509143518 10 274 0.0 0.0 0.00 0.00 0.00 23 1020.3
20260509143019 10 273 0.0 0.0 0.00 0.00 0.00 17 1020.3
20260509142517 10 273 0.0 0.0 0.00 0.00 0.00 22 1020.3
20260509142018 10 273 0.0 0.0 0.00 0.00 0.00 21 1020.3
20260509141521 10 273 0.0 0.0 0.00 0.00 0.00 20 1020.1
20260509141019 10 273 0.0 0.0 0.00 0.00 0.00 20 1020.0
20260509140516 10 273 0.0 0.0 0.00 0.00 0.00 20 1020.0
20260509140015 10 272 0.0 0.0 0.00 0.00 0.00 21 1020.1
20260509135516 9 273 0.0 0.0 0.00 0.00 0.00 22 1019.9
20260509135016 9 272 0.0 0.0 0.00 0.00 0.00 22 1020.0
20260509134515 9 360 0.0 0.0 0.00 0.00 0.00 21 1020.0
20260509134015 9 360 0.0 0.0 0.00 0.00 0.00 21 1020.0
20260509133515 9 360 0.0 0.0 0.00 0.00 0.00 22 1020.2
20260509133013 9 360 0.0 0.0 0.00 0.00 0.00 25 1020.2
20260509132516 9 271 0.0 0.0 0.00 0.00 0.00 27 1020.1
20260509132013 9 271 0.0 0.0 0.00 0.00 0.00 28 1020.0
20260509131510 9 270 0.0 0.0 0.00 0.00 0.00 30 1019.9
20260509131010 9 271 0.0 0.0 0.00 0.00 0.00 31 1019.9
20260509130509 9 360 0.0 0.0 0.00 0.00 0.00 33 1019.8
20260509130013 9 360 0.0 0.0 0.00 0.00 0.00 36 1019.8
20260509125508 9 360 0.0 0.0 0.00 0.00 0.00 37 1019.8
20260509125011 9 360 0.0 0.0 0.00 0.00 0.00 40 1019.7
20260509124509 9 360 0.0 0.0 0.00 0.00 0.00 43 1019.6
20260509124005 9 360 0.0 0.0 0.00 0.00 0.00 44 1019.7
20260509123506 9 273 0.0 0.0 0.00 0.00 0.00 47 1019.6
20260509123004 9 273 0.0 0.0 0.00 0.00 0.00 50 1019.5
20260509122502 10 273 0.0 0.0 0.00 0.00 0.00 55 1019.6
20260509122001 10 273 0.0 0.0 0.00 0.00 0.00 56 1019.6
20260509121600 10 273 0.0 0.0 0.00 0.00 0.00 57 1019.5
20260509121059 10 273 0.0 0.0 0.00 0.00 0.00 58 1019.5
20260509120600 10 273 0.0 0.0 0.00 0.00 0.00 61 1019.5
20260509120057 10 273 0.0 0.0 0.00 0.00 0.00 62 1019.4
20260509115555 11 273 0.0 0.0 0.00 0.00 0.00 64 1019.4
20260509115053 11 273 0.0 0.0 0.00 0.00 0.00 65 1019.3
20260509114555 11 273 0.0 0.0 0.00 0.00 0.00 66 1019.4
20260509114053 11 273 0.0 0.0 0.00 0.00 0.00 67 1019.3
20260509113553 12 273 0.0 0.0 0.00 0.00 0.00 67 1019.2
20260509113057 12 273 0.0 0.0 0.00 0.00 0.00 68 1019.3
20260509112552 12 273 0.0 0.0 0.00 0.00 0.00 68 1019.2
20260509112052 12 273 0.0 0.0 0.00 0.00 0.00 68 1019.2
20260509111552 12 273 0.0 0.0 0.00 0.00 0.00 68 1019.0
20260509111052 12 232 0.0 0.0 0.00 0.00 0.00 68 1019.0
20260509110555 12 265 0.0 0.0 0.00 0.00 0.00 68 1018.9
20260509110051 12 269 0.0 0.0 0.00 0.00 0.00 68 1019.0
20260509105550 12 276 0.0 0.0 0.00 0.00 0.00 68 1019.1
20260509105050 12 294 0.0 0.0 0.00 0.00 0.00 68 1019.1
20260509104550 12 277 0.0 0.0 0.00 0.00 0.00 68 1019.0
20260509104048 12 270 0.0 0.0 0.00 0.00 0.00 68 1019.0
20260509103548 12 259 0.0 0.0 0.00 0.00 0.00 68 1019.1
20260509103053 12 247 0.0 0.0 0.00 0.00 0.00 68 1019.1
20260509102548 12 274 0.0 0.0 0.00 0.00 0.00 67 1019.2
20260509102048 12 275 0.0 0.0 0.00 0.00 0.00 67 1019.2
20260509101552 12 255 0.0 0.0 0.00 0.00 0.00 67 1019.2
20260509101046 12 231 0.0 0.0 0.00 0.00 0.00 67 1019.2
20260509100546 12 256 0.0 0.0 0.00 0.00 0.00 67 1019.2